[[{"header":{"parameterUnit":"m.s-1","parameterCategory":2,"la1":30.2991,"la2":30.254,"lo1":-89.0895,"lo2":-89.0444,"dy":0.0017,"dx":0.0017,"nx":28,"ny":28,"refTime":"2025-07-10T03:00:00:Z","depth":"0","parameterNumber":2,"parameterNumberName":"U-component_of_CURRENTS"},"data":[0,0,0,0,0,0,0,0,0,0,0,0,0,0,0,0,0,0,0,0,0,0,0,0,0,0,0,0,0,0,0,0,0,0,0,0,0,0,0,0,0,0,0,0,0,0,0,0,0,0,0,0,0,0,0,0,0,0,-0.1299,-0.1299,0,-0.1248,-0.1248,-0.1247,-0.1189,-0.1188,-0.1188,-0.1187,-0.1072,-0.1069,-0.1067,0,0,0,0,0,0,0,0,0,0,0,0,0,-0.1374,-0.1373,-0.1299,-0.1299,-0.1298,-0.1249,-0.1248,-0.1247,-0.119,-0.1188,-0.1187,-0.1186,-0.1072,-0.107,-0.1067,0,0,0,0,0,0,0,0,0,0,0,0,0,-0.1334,-0.1372,-0.1299,-0.1263,-0.1259,-0.1249,-0.1248,-0.1247,-0.119,-0.1188,-0.1187,-0.1186,-0.1073,-0.107,-0.1067,-0.1073,0,0,-0.1057,-0.1055,0,0,0,0,0,0,0,0,-0.1337,-0.1332,-0.1269,-0.1265,-0.1261,-0.1223,-0.1232,-0.1186,-0.119,-0.1217,-0.1187,-0.1185,-0.1117,-0.111,-0.1105,-0.1068,-0.1063,-0.1056,-0.1054,-0.1053,-0.1052,0,0,0,0,0,0,0,-0.1339,-0.1334,-0.128,-0.1268,-0.1263,-0.1258,-0.1251,-0.1223,-0.1174,-0.1214,-0.121,-0.1204,-0.1114,-0.1109,-0.1102,-0.1061,-0.1056,-0.1053,-0.1051,-0.105,-0.1043,-0.1045,0,0,0,0,0,0,-0.1345,-0.1336,-0.1281,-0.1278,-0.1296,-0.1258,-0.125,-0.1237,-0.1176,-0.1166,-0.1205,-0.1201,-0.1115,-0.1106,-0.1097,-0.1097,-0.1053,-0.105,-0.1048,-0.1041,-0.1043,-0.1045,0,0,0,0,0,0,-0.1346,-0.134,-0.1283,-0.1306,-0.1298,-0.1258,-0.1244,-0.1237,-0.1222,-0.117,-0.1158,-0.1196,-0.1114,-0.1102,-0.1083,-0.1092,-0.1048,-0.1045,-0.1039,-0.1042,-0.1044,-0.1098,0,0,0,0,0,0,-0.1349,-0.1341,-0.1332,-0.1306,-0.1297,-0.1274,-0.1245,-0.1237,-0.1221,-0.1215,-0.1159,-0.1147,-0.1112,-0.1089,-0.108,-0.1086,-0.1043,-0.1037,-0.104,-0.1044,-0.1094,-0.1102,-0.1109,0,0,0,0,0,-0.1352,-0.1342,-0.1332,-0.1325,-0.1287,-0.1275,-0.127,-0.1237,-0.1222,-0.1219,-0.1192,-0.1148,-0.1104,-0.1087,-0.1077,-0.1082,-0.1035,-0.1039,-0.1043,-0.109,-0.11,-0.1109,0,0,0,0,0,0,-0.1373,-0.1335,-0.1323,-0.1303,-0.1291,-0.1264,-0.1253,-0.1241,-0.1219,-0.1209,-0.1164,-0.1152,-0.1145,-0.1114,-0.1097,-0.1096,-0.1065,-0.1067,-0.1105,-0.1114,-0.1121,-0.115,-0.104,0,0,0,0,0,-0.1375,-0.1352,-0.1331,-0.1315,-0.1308,-0.1285,-0.1275,-0.1258,-0.1236,-0.1224,-0.1192,-0.1166,-0.1157,-0.1135,-0.1121,-0.1109,-0.1113,-0.1111,-0.1119,-0.1125,-0.1145,-0.119,-0.1204,-0.1059,-0.1059,-0.1059,0,0,-0.1378,-0.1355,-0.1341,-0.1317,-0.1301,-0.1293,-0.1274,-0.126,-0.1259,-0.1216,-0.1201,-0.1191,-0.1165,-0.1162,-0.1155,-0.113,-0.1164,-0.113,-0.1135,-0.1152,-0.1196,-0.121,-0.1223,-0.1061,-0.1061,-0.1061,0,0,-0.1369,-0.1354,-0.133,-0.1324,-0.1302,-0.1297,-0.1296,-0.1276,-0.1269,-0.126,-0.1246,-0.1264,-0.1207,-0.1223,-0.1216,-0.1264,-0.1213,-0.1233,-0.1276,-0.1319,-0.1332,-0.1343,-0.1342,-0.1353,-0.1224,-0.1224,-0.1224,0,-0.1375,-0.1342,-0.1326,-0.131,-0.1307,-0.13,-0.1293,-0.1294,-0.1274,-0.1286,-0.1257,-0.1269,-0.1252,-0.1287,-0.1301,-0.1283,-0.127,-0.1235,-0.1329,-0.134,-0.1351,-0.1348,-0.1359,-0.1227,-0.1227,-0.1227,-0.1227,0,-0.1346,-0.1329,-0.132,-0.1296,-0.1299,-0.1293,-0.1298,-0.1306,-0.13,-0.1307,-0.134,-0.1343,-0.1353,-0.1353,-0.1331,-0.1397,-0.1351,-0.1342,-0.1303,-0.1368,-0.1361,-0.1371,-0.1232,-0.1231,-0.123,-0.1229,0,0,-0.1334,-0.1304,-0.13,-0.1293,-0.1293,-0.1292,-0.1311,-0.1333,-0.1349,-0.1361,-0.139,-0.1425,-0.1442,-0.1442,-0.1438,-0.1475,-0.1536,-0.1427,-0.1428,-0.1422,-0.1586,-0.151,-0.1514,-0.1522,-0.1525,-0.1527,-0.1542,0,-0.1316,-0.1284,-0.1281,-0.1274,-0.1266,-0.1288,-0.1305,-0.1334,-0.1353,-0.1382,-0.1436,-0.1455,-0.1468,-0.1467,-0.1522,-0.1521,-0.1569,-0.1531,-0.1529,-0.1529,-0.1451,-0.1527,-0.1327,-0.132,-0.1552,-0.1554,-0.1555,0,-0.1285,-0.127,-0.1255,-0.1262,-0.1262,-0.1269,-0.131,-0.1325,-0.1387,-0.1401,-0.1465,-0.1483,-0.1557,-0.1551,-0.1633,-0.159,-0.161,-0.1619,-0.1619,-0.1544,-0.1475,-0.1299,-0.133,-0.1174,-0.1571,-0.1569,-0.1568,0,-0.1272,-0.1255,-0.1245,-0.1246,-0.1256,-0.1268,-0.1283,-0.1335,-0.1352,-0.142,-0.143,-0.1524,-0.1542,-0.1609,-0.1636,-0.1623,-0.1702,-0.1687,-0.1654,-0.1646,-0.1479,-0.1453,-0.136,-0.1787,-0.1787,-0.1787,-0.1787,0,-0.1255,-0.1245,-0.1236,-0.1232,-0.1232,-0.1252,-0.127,-0.1302,-0.1348,-0.1371,-0.1442,-0.1468,-0.1555,-0.1599,-0.1643,-0.1668,-0.1717,-0.1686,-0.1664,-0.1488,-0.1464,-0.1322,-0.1421,-0.1788,-0.1787,-0.1787,-0.1787,0,-0.1239,-0.1231,-0.1219,-0.1223,-0.1221,-0.1225,-0.124,-0.1252,-0.1301,-0.133,-0.1346,-0.142,-0.1461,-0.1537,-0.1619,-0.1649,-0.1652,-0.1703,-0.1468,-0.1421,-0.1234,-0.1348,-0.1478,-0.1438,-0.1662,-0.166,-0.1659,0,-0.122,-0.1209,-0.1203,-0.1188,-0.1186,-0.1188,-0.1182,-0.1225,-0.1237,-0.1297,-0.1303,-0.1352,-0.137,-0.145,-0.1483,-0.1536,-0.1587,-0.1421,-0.1402,-0.1213,-0.1326,-0.1442,-0.1407,-0.1184,-0.1179,-0.1175,-0.1171,0,-0.1179,-0.118,-0.1168,-0.1141,-0.1127,-0.1121,-0.1121,-0.1125,-0.1174,-0.1191,-0.1212,-0.1226,-0.1259,-0.1199,-0.1262,-0.1294,-0.1338,-0.1339,-0.1209,-0.1024,-0.1087,-0.1033,-0.116,-0.1134,-0.1138,-0.1141,-0.1143,-0.1144,-0.1134,-0.1115,-0.1089,-0.1067,-0.1058,-0.1043,-0.1017,-0.1027,-0.1028,-0.1025,-0.1093,-0.1046,-0.0955,-0.0983,-0.0964,-0.0791,-0.1117,-0.0767,-0.0942,-0.1085,-0.1006,-0.1048,-0.0965,-0.0967,-0.097,-0.0972,-0.0973,0,-0.1043,-0.1024,-0.1004,-0.0968,-0.0942,-0.0963,-0.0954,-0.0916,-0.0886,-0.0866,-0.0861,-0.0709,-0.0574,-0.0474,-0.033,-0.0332,-0.0371,-0.0396,-0.0448,-0.0448,-0.0458,-0.0377,-0.0083,-0.0083,-0.0083,-0.0083,-0.0083,-0.0084,-0.0984,-0.0923,-0.0918,-0.0844,-0.0832,-0.0774,-0.0758,-0.0725,-0.0682,-0.0559,-0.0444,-0.0387,-0.0242,-0.0214,-0.0008,-0.0007,-0.0064,-0.0206,-0.0332,-0.0212,-0.0255,-0.0296,-0.0223,0.0098,0.0097,-0.0105,-0.0108,-0.011]},{"header":{"parameterUnit":"m.s-1","parameterCategory":2,"la1":30.2991,"la2":30.254,"lo1":-89.0895,"lo2":-89.0444,"dy":0.0017,"dx":0.0017,"nx":28,"ny":28,"refTime":"2025-07-10T03:00:00:Z","depth":"0","parameterNumber":3,"parameterNumberName":"V-component_of_CURRENTS"},"data":[0,0,0,0,0,0,0,0,0,0,0,0,0,0,0,0,0,0,0,0,0,0,0,0,0,0,0,0,0,0,0,0,0,0,0,0,0,0,0,0,0,0,0,0,0,0,0,0,0,0,0,0,0,0,0,0,0,0,-0.0694,-0.0695,0,-0.072,-0.0721,-0.0721,-0.0714,-0.0713,-0.0713,-0.0712,-0.0703,-0.0703,-0.0703,0,0,0,0,0,0,0,0,0,0,0,0,0,-0.0584,-0.0586,-0.0694,-0.0695,-0.0695,-0.072,-0.0721,-0.0721,-0.0714,-0.0713,-0.0712,-0.0712,-0.0703,-0.0703,-0.0704,0,0,0,0,0,0,0,0,0,0,0,0,0,-0.0623,-0.0587,-0.0694,-0.0695,-0.0695,-0.072,-0.0721,-0.0721,-0.0714,-0.0713,-0.0712,-0.0712,-0.0703,-0.0703,-0.0704,-0.0721,0,0,-0.0705,-0.0705,0,0,0,0,0,0,0,0,-0.0621,-0.0627,-0.0694,-0.0695,-0.0695,-0.0713,-0.0678,-0.0719,-0.0714,-0.0706,-0.0712,-0.0711,-0.0704,-0.0704,-0.0711,-0.072,-0.072,-0.0705,-0.0705,-0.0705,-0.0705,0,0,0,0,0,0,0,-0.0618,-0.0626,-0.0704,-0.0695,-0.0695,-0.0675,-0.068,-0.0686,-0.0708,-0.0707,-0.0707,-0.071,-0.0704,-0.0711,-0.071,-0.072,-0.0705,-0.0705,-0.0705,-0.0705,-0.0754,-0.0755,0,0,0,0,0,0,-0.062,-0.0624,-0.0704,-0.0705,-0.0656,-0.0678,-0.0683,-0.0708,-0.0709,-0.0709,-0.0711,-0.071,-0.071,-0.071,-0.071,-0.076,-0.0705,-0.0705,-0.0706,-0.0753,-0.0754,-0.0755,0,0,0,0,0,0,-0.0618,-0.0628,-0.0703,-0.0663,-0.0672,-0.0681,-0.0708,-0.0709,-0.0711,-0.0712,-0.0711,-0.0712,-0.071,-0.071,-0.0724,-0.0759,-0.0705,-0.0706,-0.0752,-0.0753,-0.0755,-0.0842,0,0,0,0,0,0,-0.0615,-0.0627,-0.0644,-0.0665,-0.0674,-0.0729,-0.0709,-0.071,-0.0715,-0.0714,-0.0713,-0.0712,-0.0709,-0.0724,-0.0724,-0.0758,-0.0706,-0.075,-0.0752,-0.0754,-0.0837,-0.0846,-0.0853,0,0,0,0,0,-0.0611,-0.0643,-0.0645,-0.0654,-0.0698,-0.0731,-0.0734,-0.0736,-0.0716,-0.0732,-0.0727,-0.0711,-0.0737,-0.0725,-0.0726,-0.076,-0.0749,-0.0752,-0.0754,-0.0834,-0.0844,-0.0853,0,0,0,0,0,0,-0.0596,-0.0646,-0.0648,-0.0691,-0.0712,-0.073,-0.0742,-0.0736,-0.0745,-0.0739,-0.0727,-0.0727,-0.0755,-0.074,-0.0727,-0.0778,-0.074,-0.0743,-0.08,-0.081,-0.0818,-0.0837,-0.0706,0,0,0,0,0,-0.0603,-0.0645,-0.0675,-0.0707,-0.0719,-0.0727,-0.0736,-0.0741,-0.0751,-0.0753,-0.0751,-0.0751,-0.0767,-0.0773,-0.0782,-0.0808,-0.0812,-0.0828,-0.0836,-0.0843,-0.0858,-0.0869,-0.088,-0.0763,-0.0763,-0.0763,0,0,-0.0602,-0.0636,-0.0656,-0.0706,-0.072,-0.0759,-0.0731,-0.0756,-0.0791,-0.0751,-0.0788,-0.078,-0.0779,-0.0817,-0.0827,-0.0808,-0.0887,-0.0846,-0.0853,-0.0864,-0.0873,-0.0884,-0.0894,-0.0765,-0.0765,-0.0764,0,0,-0.0629,-0.0655,-0.0699,-0.0727,-0.0761,-0.0776,-0.0783,-0.0805,-0.0818,-0.085,-0.0835,-0.085,-0.0861,-0.0882,-0.089,-0.0945,-0.0929,-0.0935,-0.0994,-0.1005,-0.1015,-0.1023,-0.1085,-0.1098,-0.0939,-0.0939,-0.0939,0,-0.0622,-0.069,-0.0712,-0.0761,-0.0789,-0.0787,-0.0834,-0.0857,-0.088,-0.09,-0.0873,-0.091,-0.0903,-0.0964,-0.0981,-0.0969,-0.0975,-0.096,-0.1017,-0.1025,-0.1032,-0.1093,-0.1106,-0.0943,-0.0943,-0.0942,-0.0942,0,-0.0687,-0.0737,-0.0763,-0.0835,-0.0866,-0.0905,-0.0942,-0.097,-0.0972,-0.0991,-0.1037,-0.1032,-0.1053,-0.1054,-0.1034,-0.1089,-0.1081,-0.1027,-0.0996,-0.105,-0.111,-0.1123,-0.095,-0.0948,-0.0947,-0.0946,0,0,-0.0681,-0.079,-0.0798,-0.0843,-0.091,-0.0944,-0.101,-0.1072,-0.111,-0.113,-0.1183,-0.1208,-0.1188,-0.1195,-0.1173,-0.1181,-0.1249,-0.1123,-0.1122,-0.1193,-0.1305,-0.1203,-0.1207,-0.1188,-0.1189,-0.1191,-0.1342,0,-0.0722,-0.083,-0.0874,-0.0964,-0.1018,-0.1051,-0.1111,-0.1165,-0.1193,-0.1243,-0.1257,-0.1291,-0.1249,-0.125,-0.1259,-0.1233,-0.1278,-0.1215,-0.1235,-0.1238,-0.1145,-0.1216,-0.106,-0.117,-0.1354,-0.1356,-0.1358,0,-0.0772,-0.0842,-0.0942,-0.1041,-0.1065,-0.1115,-0.1204,-0.1257,-0.1329,-0.1349,-0.1389,-0.1386,-0.143,-0.1362,-0.14,-0.1352,-0.1351,-0.1336,-0.134,-0.1219,-0.1156,-0.1136,-0.1185,-0.0886,-0.1377,-0.1375,-0.1374,0,-0.0769,-0.0885,-0.0968,-0.1004,-0.1114,-0.116,-0.121,-0.1286,-0.133,-0.1412,-0.1439,-0.149,-0.1501,-0.1503,-0.1471,-0.1435,-0.1498,-0.1447,-0.1386,-0.1382,-0.1241,-0.1219,-0.1004,-0.1503,-0.1503,-0.1503,-0.1502,0,-0.0806,-0.0866,-0.0972,-0.102,-0.1103,-0.1171,-0.125,-0.1307,-0.1381,-0.1435,-0.1482,-0.1522,-0.1521,-0.1545,-0.1525,-0.1493,-0.1553,-0.1426,-0.1408,-0.127,-0.1249,-0.0972,-0.0859,-0.1508,-0.1507,-0.1506,-0.1505,0,-0.0792,-0.0868,-0.0958,-0.1074,-0.1107,-0.1161,-0.1259,-0.131,-0.1382,-0.1453,-0.1479,-0.1552,-0.1585,-0.16,-0.1613,-0.1547,-0.1378,-0.1522,-0.1383,-0.1343,-0.096,-0.086,-0.0789,-0.0656,-0.1488,-0.1487,-0.1485,0,-0.08,-0.0849,-0.0973,-0.1016,-0.1067,-0.1151,-0.1203,-0.1298,-0.1348,-0.1461,-0.1491,-0.1562,-0.1604,-0.1612,-0.1528,-0.1522,-0.1339,-0.1335,-0.1225,-0.0928,-0.0806,-0.0799,-0.0692,-0.1116,-0.1112,-0.1108,-0.1105,0,-0.0795,-0.0834,-0.0903,-0.0991,-0.1057,-0.1133,-0.1213,-0.1253,-0.1358,-0.1415,-0.1491,-0.1539,-0.1561,-0.1467,-0.1425,-0.1363,-0.106,-0.1258,-0.0972,-0.0515,-0.0477,-0.034,-0.1068,-0.1073,-0.1076,-0.1079,-0.108,-0.1082,-0.0765,-0.0801,-0.0882,-0.0956,-0.1026,-0.1094,-0.1127,-0.1202,-0.1266,-0.1318,-0.1427,-0.1437,-0.1313,-0.1232,-0.1133,-0.0707,-0.0863,-0.053,-0.0457,-0.0499,-0.0266,-0.0938,-0.0881,-0.0883,-0.0885,-0.0886,-0.0888,0,-0.073,-0.0775,-0.0841,-0.0929,-0.0974,-0.1033,-0.1112,-0.1113,-0.1145,-0.1186,-0.1238,-0.1108,-0.0883,-0.0672,-0.0225,0.0081,0.0121,0.0258,0.0356,0.041,-0.0181,-0.0043,0.023,0.023,0.023,0.0229,0.0229,0.0229,-0.0713,-0.0759,-0.08,-0.0854,-0.0904,-0.0939,-0.0965,-0.0957,-0.0956,-0.0889,-0.0822,-0.0826,-0.0484,0.023,0.0825,0.0901,0.1146,0.1094,0.1161,0.0873,0.0807,0.0744,0.0909,0.1377,0.1378,0.1774,0.1779,0.1783]}],[{"header":{"parameterUnit":"m.s-1","parameterCategory":2,"la1":30.2991,"la2":30.254,"lo1":-89.0895,"lo2":-89.0444,"dy":0.0017,"dx":0.0017,"nx":28,"ny":28,"refTime":"2025-07-10T03:00:00:Z","depth":"2","parameterNumber":2,"parameterNumberName":"U-component_of_CURRENTS"},"data":[0,0,0,0,0,0,0,0,0,0,0,0,0,0,0,0,0,0,0,0,0,0,0,0,0,0,0,0,0,0,0,0,0,0,0,0,0,0,0,0,0,0,0,0,0,0,0,0,0,0,0,0,0,0,0,0,0,0,-0.2712,-0.2713,0,-0.2734,-0.2734,-0.2734,-0.2702,-0.2701,-0.27,-0.2699,-0.2594,-0.2592,-0.259,0,0,0,0,0,0,0,0,0,0,0,0,0,-0.2509,-0.2513,-0.2712,-0.2713,-0.2713,-0.2734,-0.2734,-0.2734,-0.2702,-0.2701,-0.27,-0.2699,-0.2595,-0.2592,-0.259,0,0,0,0,0,0,0,0,0,0,0,0,0,-0.2567,-0.2515,-0.2712,-0.2703,-0.2702,-0.2734,-0.2734,-0.2734,-0.2702,-0.2701,-0.2699,-0.2698,-0.2596,-0.2592,-0.2589,-0.2594,0,0,-0.258,-0.2579,0,0,0,0,0,0,0,0,-0.2564,-0.2574,-0.2703,-0.2703,-0.2703,-0.2717,-0.2624,-0.2682,-0.2702,-0.2698,-0.2699,-0.2698,-0.2627,-0.2621,-0.2624,-0.2589,-0.2585,-0.258,-0.2578,-0.2576,-0.2576,0,0,0,0,0,0,0,-0.256,-0.2573,-0.2717,-0.2704,-0.2704,-0.2652,-0.266,-0.2634,-0.2663,-0.2698,-0.2697,-0.2706,-0.2625,-0.2627,-0.2621,-0.2583,-0.258,-0.2577,-0.2575,-0.2574,-0.2498,-0.2498,0,0,0,0,0,0,-0.2575,-0.257,-0.2716,-0.2718,-0.2634,-0.2657,-0.2666,-0.2711,-0.2666,-0.2661,-0.2707,-0.2704,-0.2633,-0.2625,-0.2617,-0.2575,-0.2577,-0.2574,-0.2572,-0.2498,-0.2498,-0.2498,0,0,0,0,0,0,-0.2571,-0.2589,-0.2716,-0.2644,-0.2657,-0.2664,-0.2713,-0.2712,-0.2703,-0.2675,-0.2666,-0.2699,-0.2632,-0.2622,-0.2585,-0.2572,-0.2572,-0.2569,-0.2498,-0.2498,-0.2498,-0.2518,0,0,0,0,0,0,-0.2566,-0.2589,-0.2622,-0.2647,-0.2662,-0.2736,-0.2715,-0.2713,-0.2713,-0.271,-0.2665,-0.2655,-0.263,-0.259,-0.2582,-0.2568,-0.2567,-0.2499,-0.2498,-0.2498,-0.2518,-0.2519,-0.252,0,0,0,0,0,-0.2559,-0.2599,-0.2624,-0.2641,-0.2711,-0.2737,-0.2739,-0.2734,-0.2714,-0.2719,-0.268,-0.2656,-0.2582,-0.2587,-0.2578,-0.2562,-0.2499,-0.2498,-0.2498,-0.2517,-0.2519,-0.252,0,0,0,0,0,0,-0.2532,-0.2602,-0.2628,-0.2692,-0.2719,-0.2733,-0.2739,-0.2733,-0.271,-0.2694,-0.2656,-0.2644,-0.2615,-0.2586,-0.2592,-0.2541,-0.2536,-0.2534,-0.2554,-0.2554,-0.2555,-0.2537,-0.2564,0,0,0,0,0,-0.2548,-0.2596,-0.2648,-0.27,-0.2715,-0.2727,-0.2735,-0.2732,-0.272,-0.2708,-0.2679,-0.2639,-0.261,-0.2579,-0.2561,-0.2524,-0.2505,-0.2507,-0.2508,-0.2509,-0.2489,-0.2466,-0.2463,-0.2497,-0.2497,-0.2497,0,0,-0.2552,-0.2598,-0.2625,-0.2696,-0.2715,-0.2724,-0.2727,-0.274,-0.2733,-0.2699,-0.2671,-0.2651,-0.2607,-0.2577,-0.2558,-0.2543,-0.2494,-0.2509,-0.251,-0.2488,-0.2465,-0.2462,-0.2459,-0.2497,-0.2497,-0.2497,0,0,-0.2562,-0.2628,-0.2659,-0.2675,-0.271,-0.2721,-0.2724,-0.2739,-0.2734,-0.272,-0.2689,-0.2654,-0.2617,-0.2575,-0.2548,-0.2539,-0.2516,-0.2536,-0.2503,-0.2482,-0.2479,-0.2476,-0.2468,-0.2464,-0.2517,-0.2517,-0.2517,0,-0.2558,-0.2607,-0.2667,-0.2681,-0.2676,-0.2716,-0.2708,-0.2725,-0.2719,-0.2691,-0.2712,-0.2637,-0.2613,-0.254,-0.2541,-0.2538,-0.2529,-0.2504,-0.2483,-0.248,-0.2476,-0.2468,-0.2463,-0.2518,-0.2518,-0.2518,-0.2518,0,-0.2555,-0.2599,-0.261,-0.2648,-0.2661,-0.2657,-0.2689,-0.2689,-0.2691,-0.2683,-0.2642,-0.2628,-0.2569,-0.2566,-0.255,-0.2498,-0.2504,-0.2506,-0.2481,-0.2474,-0.2466,-0.2461,-0.2519,-0.2519,-0.2519,-0.2519,0,0,-0.2517,-0.2593,-0.2593,-0.2577,-0.2624,-0.2609,-0.2632,-0.262,-0.2578,-0.2609,-0.2562,-0.2535,-0.2527,-0.2497,-0.2481,-0.2455,-0.2443,-0.2465,-0.2464,-0.2458,-0.2405,-0.2245,-0.2224,-0.2445,-0.2444,-0.2443,-0.2417,0,-0.248,-0.2473,-0.2539,-0.2507,-0.2481,-0.2527,-0.2523,-0.2518,-0.2531,-0.2509,-0.2514,-0.2486,-0.2504,-0.2482,-0.2463,-0.246,-0.2426,-0.2449,-0.2411,-0.2409,-0.2268,-0.221,-0.2037,-0.1983,-0.2412,-0.2411,-0.241,0,-0.2417,-0.2417,-0.2391,-0.2376,-0.237,-0.2381,-0.233,-0.2336,-0.235,-0.2358,-0.2358,-0.239,-0.2381,-0.2413,-0.2388,-0.2407,-0.2394,-0.2392,-0.2392,-0.2221,-0.2236,-0.2055,-0.1957,-0.2401,-0.2402,-0.2402,-0.2403,0,-0.2253,-0.2287,-0.2248,-0.2241,-0.2262,-0.226,-0.2271,-0.2275,-0.2277,-0.2287,-0.2302,-0.2295,-0.2329,-0.2319,-0.2346,-0.2371,-0.232,-0.2356,-0.2191,-0.2182,-0.2009,-0.1984,-0.2302,-0.2302,-0.2302,-0.2302,-0.2302,0,-0.2122,-0.2088,-0.2177,-0.2132,-0.2084,-0.2134,-0.2102,-0.2105,-0.2155,-0.2147,-0.2224,-0.2216,-0.2311,-0.2319,-0.232,-0.2226,-0.2299,-0.2152,-0.2141,-0.2011,-0.1988,-0.233,-0.2334,-0.2301,-0.2301,-0.2302,-0.2302,0,-0.1951,-0.2004,-0.1965,-0.1999,-0.2016,-0.1979,-0.2063,-0.2045,-0.2087,-0.2107,-0.2135,-0.2192,-0.2178,-0.2232,-0.2221,-0.2175,-0.2112,-0.2052,-0.1896,-0.1862,-0.2006,-0.2011,-0.1872,-0.1865,-0.186,-0.1855,-0.1852,0,-0.1855,-0.1825,-0.187,-0.1883,-0.1926,-0.1927,-0.1949,-0.2006,-0.2035,-0.206,-0.2074,-0.2087,-0.2046,-0.1965,-0.1879,-0.181,-0.1951,-0.1612,-0.1594,-0.1946,-0.1951,-0.1965,-0.1978,-0.1408,-0.1401,-0.1395,-0.139,0,-0.1689,-0.1742,-0.1731,-0.1771,-0.1812,-0.1842,-0.19,-0.1908,-0.1974,-0.197,-0.1937,-0.1896,-0.1795,-0.1615,-0.1516,-0.145,-0.1612,-0.1483,-0.1878,-0.1521,-0.1499,-0.1508,-0.1537,-0.1339,-0.1344,-0.1348,-0.135,-0.1352,-0.1598,-0.1586,-0.1627,-0.165,-0.1717,-0.1768,-0.1728,-0.1801,-0.1785,-0.175,-0.1763,-0.1647,-0.1574,-0.1315,-0.1173,-0.1069,-0.1195,-0.1166,-0.1189,-0.1217,-0.1144,-0.1111,-0.0867,-0.0869,-0.0871,-0.0873,-0.0874,0,-0.1468,-0.1493,-0.1512,-0.1553,-0.1592,-0.1661,-0.1696,-0.1642,-0.1569,-0.1555,-0.1477,-0.1276,-0.1089,-0.105,-0.0771,-0.0651,-0.0692,-0.0639,-0.073,-0.0777,-0.0821,-0.0735,-0.0346,-0.0345,-0.0344,-0.0343,0,0,-0.1409,-0.1392,-0.1408,-0.1421,-0.1461,-0.1432,-0.1405,-0.1334,-0.1297,-0.1173,-0.1109,-0.1139,-0.1077,-0.0809,-0.063,-0.046,-0.0639,-0.0411,-0.0826,-0.0985,-0.103,-0.1094,-0.1009,0,0,0,0,0]},{"header":{"parameterUnit":"m.s-1","parameterCategory":2,"la1":30.2991,"la2":30.254,"lo1":-89.0895,"lo2":-89.0444,"dy":0.0017,"dx":0.0017,"nx":28,"ny":28,"refTime":"2025-07-10T03:00:00:Z","depth":"2","parameterNumber":3,"parameterNumberName":"V-component_of_CURRENTS"},"data":[0,0,0,0,0,0,0,0,0,0,0,0,0,0,0,0,0,0,0,0,0,0,0,0,0,0,0,0,0,0,0,0,0,0,0,0,0,0,0,0,0,0,0,0,0,0,0,0,0,0,0,0,0,0,0,0,0,0,0.0562,0.0564,0,0.0761,0.0763,0.0765,0.0828,0.0827,0.0826,0.0825,0.0958,0.0962,0.0966,0,0,0,0,0,0,0,0,0,0,0,0,0,0.0334,0.0337,0.0562,0.0564,0.0567,0.076,0.0763,0.0766,0.0828,0.0827,0.0825,0.0824,0.0956,0.0961,0.0967,0,0,0,0,0,0,0,0,0,0,0,0,0,0.0473,0.0338,0.0561,0.062,0.0628,0.076,0.0763,0.0767,0.0828,0.0827,0.0825,0.0824,0.0954,0.0961,0.0968,0.1039,0,0,0.0988,0.0991,0,0,0,0,0,0,0,0,0.0465,0.0481,0.0609,0.0617,0.0625,0.0767,0.0732,0.0854,0.0829,0.0753,0.0825,0.0823,0.0888,0.0901,0.0943,0.1046,0.1051,0.0989,0.0993,0.0996,0.0998,0,0,0,0,0,0,0,0.0455,0.0474,0.0641,0.0612,0.0621,0.067,0.0688,0.0756,0.0826,0.0759,0.0764,0.0786,0.0892,0.0937,0.0947,0.1053,0.0988,0.0994,0.0999,0.1001,0.1172,0.1173,0,0,0,0,0,0,0.0427,0.0465,0.0635,0.0647,0.0539,0.0675,0.0695,0.0724,0.0827,0.0842,0.0787,0.0788,0.0926,0.0939,0.0951,0.098,0.0996,0.1002,0.1006,0.1172,0.1172,0.1173,0,0,0,0,0,0,0.0421,0.044,0.0627,0.0559,0.0586,0.068,0.0713,0.0728,0.0752,0.0848,0.0861,0.0791,0.0925,0.0942,0.0984,0.0987,0.1005,0.1011,0.1171,0.1172,0.1173,0.1076,0,0,0,0,0,0,0.0414,0.0437,0.045,0.0557,0.0589,0.0689,0.0715,0.0733,0.0769,0.0772,0.0857,0.087,0.0925,0.0974,0.0991,0.0997,0.1016,0.117,0.1171,0.1172,0.1079,0.1074,0.1069,0,0,0,0,0,0.0405,0.0418,0.045,0.047,0.0603,0.0689,0.071,0.0772,0.077,0.0785,0.0828,0.0866,0.0992,0.0979,0.0999,0.1007,0.117,0.1171,0.1172,0.1081,0.1075,0.1069,0,0,0,0,0,0,0.0335,0.0429,0.0465,0.051,0.0588,0.0698,0.072,0.0758,0.081,0.0796,0.0872,0.0888,0.0929,0.0984,0.0967,0.1061,0.1089,0.1094,0.1013,0.1008,0.1003,0.0969,0.1022,0,0,0,0,0,0.0325,0.0355,0.0459,0.0496,0.0525,0.0618,0.0658,0.0697,0.076,0.0781,0.0835,0.0895,0.0959,0.0988,0.1052,0.1103,0.1124,0.1124,0.1119,0.1114,0.1102,0.112,0.1114,0.1177,0.1177,0.1177,0,0,0.031,0.0366,0.0385,0.0482,0.0543,0.0584,0.0637,0.0684,0.0718,0.0787,0.0825,0.0877,0.0967,0.102,0.1044,0.106,0.1109,0.1116,0.1111,0.1101,0.112,0.1114,0.1108,0.1177,0.1177,0.1177,0,0,0.0286,0.034,0.0353,0.0403,0.0482,0.0546,0.0548,0.0639,0.0676,0.0731,0.0782,0.0832,0.0927,0.0995,0.1042,0.1055,0.1079,0.1068,0.1021,0.1038,0.1032,0.1027,0.104,0.1037,0.1069,0.1069,0.1069,0,0.026,0.0294,0.0372,0.0391,0.0415,0.0515,0.0521,0.0597,0.0686,0.0693,0.0723,0.0827,0.0926,0.0975,0.0998,0.1045,0.1038,0.103,0.1027,0.1023,0.1019,0.1034,0.1032,0.1064,0.1065,0.1065,0.1066,0,0.0239,0.0267,0.0273,0.0329,0.0371,0.0391,0.0489,0.0521,0.0566,0.0622,0.066,0.0778,0.0833,0.0886,0.0962,0.0983,0.098,0.1011,0.1029,0.1006,0.1025,0.1024,0.1058,0.106,0.1061,0.1062,0,0,0.0171,0.0241,0.0241,0.0237,0.0323,0.0346,0.0397,0.0455,0.0438,0.054,0.0527,0.0683,0.0711,0.0769,0.0854,0.0896,0.0911,0.0936,0.0939,0.0926,0.0916,0.0912,0.0912,0.091,0.091,0.0909,0.0935,0,0.0125,0.0121,0.018,0.0171,0.0168,0.0248,0.0271,0.0328,0.0386,0.0404,0.0524,0.0562,0.068,0.0695,0.0756,0.0879,0.0903,0.09,0.096,0.0963,0.0943,0.091,0.095,0.0974,0.0935,0.0935,0.0935,0,0.0071,0.0074,0.0053,0.0052,0.0052,0.0071,0.0069,0.0108,0.0178,0.021,0.0262,0.035,0.0472,0.0559,0.0718,0.0692,0.0792,0.0877,0.088,0.0907,0.0958,0.0996,0.0975,0.0934,0.0934,0.0934,0.0934,0,-0.0044,-0.0028,-0.006,-0.0055,-0.0021,-0.003,-0.001,0.0034,0.0049,0.0096,0.0099,0.0203,0.0298,0.0409,0.0636,0.0661,0.077,0.0838,0.0909,0.091,0.0976,0.0983,0.0899,0.0899,0.0899,0.0899,0.0899,0,-0.0129,-0.016,-0.0118,-0.0137,-0.0196,-0.0145,-0.0191,-0.0166,-0.0127,-0.0118,-0.0004,0.0031,0.0263,0.0378,0.0545,0.0718,0.0703,0.0883,0.091,0.0945,0.0949,0.0946,0.0952,0.09,0.09,0.0899,0.0899,0,-0.023,-0.0205,-0.0244,-0.0236,-0.0239,-0.0277,-0.0258,-0.0288,-0.0254,-0.0229,-0.0206,-0.0068,0.0075,0.0259,0.0468,0.0628,0.0773,0.0823,0.0845,0.0873,0.0926,0.0926,0.0921,0.0921,0.0921,0.0921,0.0921,0,-0.0278,-0.0302,-0.0315,-0.0339,-0.0323,-0.0355,-0.0373,-0.0343,-0.0339,-0.0277,-0.0259,-0.014,-0.0037,0.0221,0.0495,0.0712,0.0722,0.0872,0.0958,0.0898,0.0925,0.0925,0.0926,0.1015,0.1016,0.1017,0.1017,0,-0.036,-0.0356,-0.0379,-0.0426,-0.0445,-0.047,-0.0469,-0.0479,-0.0425,-0.0402,-0.034,-0.027,-0.0007,0.0289,0.0558,0.0691,0.0844,0.0891,0.0813,0.0992,0.0986,0.1012,0.101,0.1022,0.1022,0.1022,0.1021,0.1021,-0.0412,-0.0445,-0.0467,-0.0512,-0.0543,-0.0559,-0.0572,-0.0549,-0.054,-0.0469,-0.0399,-0.0191,0.008,0.0544,0.0644,0.0818,0.0886,0.1002,0.1001,0.0999,0.0994,0.0986,0.1022,0.1022,0.1021,0.1021,0.1021,0,-0.0469,-0.0499,-0.055,-0.0594,-0.064,-0.0626,-0.0624,-0.0614,-0.0589,-0.0465,-0.0397,-0.0027,0.0301,0.055,0.0886,0.1011,0.0983,0.0968,0.098,0.098,0.0978,0.0969,0.0992,0.0991,0.099,0.0989,0,0,-0.05,-0.0556,-0.0577,-0.0662,-0.0694,-0.0717,-0.071,-0.0672,-0.057,-0.0473,-0.0218,0.0037,0.0449,0.0657,0.0779,0.0914,0.0853,0.0859,0.0898,0.0893,0.0885,0.1048,0.1041,0,0,0,0,0]}],[{"header":{"parameterUnit":"m.s-1","parameterCategory":2,"la1":30.2991,"la2":30.254,"lo1":-89.0895,"lo2":-89.0444,"dy":0.0017,"dx":0.0017,"nx":28,"ny":28,"refTime":"2025-07-10T03:00:00:Z","depth":"4","parameterNumber":2,"parameterNumberName":"U-component_of_CURRENTS"},"data":[0,0,0,0,0,0,0,0,0,0,0,0,0,0,0,0,0,0,0,0,0,0,0,0,0,0,0,0,0,0,0,0,0,0,0,0,0,0,0,0,0,0,0,0,0,0,0,0,0,0,0,0,0,0,0,0,0,0,-0.1252,-0.1253,0,-0.1297,-0.1298,-0.1299,-0.1328,-0.1328,-0.1328,-0.1328,-0.1384,-0.1385,-0.1387,0,0,0,0,0,0,0,0,0,0,0,0,0,-0.1202,-0.1203,-0.1252,-0.1253,-0.1253,-0.1297,-0.1298,-0.1299,-0.1328,-0.1328,-0.1328,-0.1328,-0.1384,-0.1385,-0.1387,0,0,0,0,0,0,0,0,0,0,0,0,0,-0.1234,-0.1203,-0.1252,-0.1272,-0.1275,-0.1297,-0.1298,-0.1299,-0.1328,-0.1328,-0.1328,-0.1328,-0.1383,-0.1385,-0.1387,-0.1397,0,0,-0.1394,-0.1394,0,0,0,0,0,0,0,0,-0.1232,-0.1236,-0.1269,-0.1271,-0.1274,-0.1307,-0.1301,-0.1332,-0.1328,-0.1308,-0.1328,-0.1328,-0.1359,-0.1363,-0.1372,-0.1399,-0.1402,-0.1394,-0.1395,-0.1396,-0.1396,0,0,0,0,0,0,0,-0.123,-0.1234,-0.1271,-0.1269,-0.1272,-0.1283,-0.1288,-0.1307,-0.1333,-0.131,-0.1312,-0.1316,-0.136,-0.137,-0.1373,-0.1402,-0.1394,-0.1395,-0.1397,-0.1398,-0.1482,-0.1483,0,0,0,0,0,0,-0.1222,-0.1232,-0.1269,-0.1272,-0.1252,-0.1284,-0.1289,-0.1296,-0.1332,-0.1338,-0.1316,-0.1317,-0.1366,-0.1371,-0.1375,-0.143,-0.1396,-0.1398,-0.1399,-0.1481,-0.1482,-0.1483,0,0,0,0,0,0,-0.1221,-0.1225,-0.1268,-0.1252,-0.1258,-0.1284,-0.1292,-0.1297,-0.1326,-0.1336,-0.1342,-0.1341,-0.1366,-0.1372,-0.1417,-0.143,-0.1399,-0.1401,-0.148,-0.1481,-0.1483,-0.1512,0,0,0,0,0,0,-0.1219,-0.1224,-0.1238,-0.1252,-0.1259,-0.1296,-0.1292,-0.1298,-0.1326,-0.1329,-0.136,-0.1364,-0.1367,-0.1414,-0.1419,-0.1433,-0.1402,-0.1478,-0.148,-0.1482,-0.151,-0.1514,-0.1518,0,0,0,0,0,-0.1217,-0.1234,-0.1238,-0.1243,-0.1273,-0.1296,-0.1302,-0.1321,-0.1327,-0.1346,-0.1371,-0.1364,-0.1428,-0.1417,-0.1422,-0.1437,-0.1478,-0.148,-0.1482,-0.1508,-0.1513,-0.1518,0,0,0,0,0,0,-0.1215,-0.1239,-0.1244,-0.1266,-0.1285,-0.1301,-0.1321,-0.1333,-0.1367,-0.1375,-0.1385,-0.1392,-0.1435,-0.1435,-0.1421,-0.1467,-0.1449,-0.1452,-0.1466,-0.1471,-0.1476,-0.1476,-0.1404,0,0,0,0,0,-0.122,-0.1244,-0.126,-0.1279,-0.129,-0.1309,-0.1325,-0.1338,-0.1363,-0.1379,-0.1402,-0.1423,-0.1445,-0.1459,-0.148,-0.1508,-0.1498,-0.1519,-0.1523,-0.1527,-0.1531,-0.1543,-0.1548,-0.1491,-0.1491,-0.149,0,0,-0.1221,-0.124,-0.1251,-0.1282,-0.1297,-0.1317,-0.132,-0.1349,-0.137,-0.1379,-0.1427,-0.1447,-0.1459,-0.1492,-0.1509,-0.1495,-0.1534,-0.153,-0.1533,-0.1535,-0.1546,-0.1551,-0.1556,-0.1492,-0.1492,-0.1492,0,0,-0.1233,-0.1254,-0.1276,-0.1295,-0.1326,-0.1337,-0.135,-0.138,-0.1402,-0.1443,-0.1455,-0.1486,-0.1521,-0.1532,-0.1539,-0.1579,-0.1561,-0.1586,-0.1603,-0.1614,-0.1619,-0.1623,-0.1597,-0.1598,-0.1582,-0.1582,-0.1582,0,-0.1235,-0.1259,-0.1286,-0.131,-0.1327,-0.1348,-0.1369,-0.1392,-0.1436,-0.1465,-0.1463,-0.1532,-0.1535,-0.1576,-0.1583,-0.1588,-0.1583,-0.1581,-0.1619,-0.1623,-0.1626,-0.1599,-0.16,-0.1583,-0.1583,-0.1583,-0.1583,0,-0.1254,-0.1279,-0.1294,-0.133,-0.1357,-0.1377,-0.1408,-0.1448,-0.1473,-0.1497,-0.1559,-0.1573,-0.1611,-0.1613,-0.1606,-0.164,-0.1623,-0.1627,-0.1603,-0.1634,-0.1603,-0.1604,-0.1586,-0.1585,-0.1585,-0.1584,0,0,-0.1236,-0.1295,-0.1301,-0.1328,-0.1368,-0.1395,-0.1438,-0.1487,-0.1526,-0.1567,-0.1613,-0.1645,-0.1662,-0.1671,-0.1674,-0.1676,-0.1677,-0.1661,-0.166,-0.163,-0.1682,-0.1559,-0.1548,-0.1695,-0.1696,-0.1696,-0.1642,0,-0.1238,-0.1289,-0.1316,-0.1364,-0.139,-0.1431,-0.1471,-0.1525,-0.1563,-0.1614,-0.1642,-0.1681,-0.168,-0.1695,-0.1704,-0.169,-0.1685,-0.169,-0.1662,-0.166,-0.1544,-0.1547,-0.1699,-0.1643,-0.1643,-0.1643,-0.1643,0,-0.1239,-0.1278,-0.1325,-0.1396,-0.1412,-0.1447,-0.1528,-0.1565,-0.1634,-0.1664,-0.1715,-0.1734,-0.1755,-0.1739,-0.1741,-0.1748,-0.1718,-0.1699,-0.1696,-0.1574,-0.154,-0.1612,-0.1644,-0.1644,-0.1644,-0.1644,-0.1644,0,-0.1218,-0.1283,-0.1327,-0.1347,-0.1427,-0.147,-0.1514,-0.159,-0.1624,-0.1694,-0.1713,-0.1766,-0.1763,-0.1771,-0.1732,-0.1741,-0.1712,-0.1716,-0.1579,-0.1569,-0.1683,-0.168,-0.1712,-0.1712,-0.1712,-0.1712,-0.1712,0,-0.1198,-0.1237,-0.1328,-0.1351,-0.1413,-0.1476,-0.1538,-0.1593,-0.1653,-0.1665,-0.1735,-0.1722,-0.1771,-0.1759,-0.1741,-0.1649,-0.172,-0.1573,-0.155,-0.1693,-0.1692,-0.1682,-0.1679,-0.171,-0.171,-0.1711,-0.1711,0,-0.1159,-0.1214,-0.1275,-0.1371,-0.1404,-0.1452,-0.1533,-0.1566,-0.1633,-0.1642,-0.1656,-0.1688,-0.1648,-0.1681,-0.1657,-0.1619,-0.1572,-0.1523,-0.1652,-0.1638,-0.1417,-0.1417,-0.1359,-0.1354,-0.135,-0.1347,-0.1344,0,-0.1139,-0.1169,-0.1279,-0.1309,-0.1351,-0.1424,-0.1459,-0.1545,-0.1555,-0.1582,-0.1559,-0.1552,-0.1553,-0.1419,-0.1478,-0.1449,-0.1436,-0.1416,-0.1437,-0.1399,-0.1383,-0.1389,-0.1394,-0.1338,-0.1337,-0.1336,-0.1334,0,-0.1097,-0.1147,-0.1192,-0.1254,-0.1302,-0.1345,-0.1391,-0.1387,-0.1442,-0.1515,-0.1399,-0.1364,-0.1308,-0.1293,-0.1287,-0.1271,-0.144,-0.1374,-0.1382,-0.1402,-0.1373,-0.1362,-0.1371,-0.1321,-0.1323,-0.1324,-0.1325,0,-0.1061,-0.1079,-0.1138,-0.1179,-0.1232,-0.1228,-0.1274,-0.1248,-0.1263,-0.1288,-0.1228,-0.1218,-0.1245,-0.1196,-0.1186,-0.1171,-0.1155,-0.1138,-0.1159,-0.1175,-0.1148,-0.1086,-0.0914,0,0,0,0,0,-0.1017,-0.1019,-0.1051,-0.1084,-0.1128,-0.1153,-0.1203,-0.1241,-0.1285,-0.1157,-0.1187,-0.1117,-0.1057,-0.1066,-0.1011,-0.1143,-0.1197,-0.1081,-0.1197,-0.1244,-0.126,-0.125,0,0,0,0,0,0,-0.0982,-0.1012,-0.1018,-0.0985,-0.0984,-0.1013,-0.1037,-0.1072,-0.1007,-0.1047,-0.1013,-0.1051,-0.1018,-0.1055,-0.0982,-0.0994,-0.1045,-0.1098,-0.1095,-0.1235,-0.1249,-0.1262,-0.1258,0,0,0,0,0]},{"header":{"parameterUnit":"m.s-1","parameterCategory":2,"la1":30.2991,"la2":30.254,"lo1":-89.0895,"lo2":-89.0444,"dy":0.0017,"dx":0.0017,"nx":28,"ny":28,"refTime":"2025-07-10T03:00:00:Z","depth":"4","parameterNumber":3,"parameterNumberName":"V-component_of_CURRENTS"},"data":[0,0,0,0,0,0,0,0,0,0,0,0,0,0,0,0,0,0,0,0,0,0,0,0,0,0,0,0,0,0,0,0,0,0,0,0,0,0,0,0,0,0,0,0,0,0,0,0,0,0,0,0,0,0,0,0,0,0,-0.0115,-0.0115,0,-0.0105,-0.0105,-0.0105,-0.0081,-0.0081,-0.008,-0.008,-0.0032,-0.0031,-0.003,0,0,0,0,0,0,0,0,0,0,0,0,0,-0.0093,-0.0093,-0.0115,-0.0115,-0.0115,-0.0105,-0.0105,-0.0105,-0.0081,-0.0081,-0.008,-0.008,-0.0032,-0.0031,-0.003,0,0,0,0,0,0,0,0,0,0,0,0,0,-0.0094,-0.0093,-0.0115,-0.0103,-0.0101,-0.0105,-0.0105,-0.0105,-0.0081,-0.0081,-0.008,-0.008,-0.0032,-0.0031,-0.003,-0.0034,0,0,-0.0026,-0.0025,0,0,0,0,0,0,0,0,-0.0094,-0.0095,-0.0105,-0.0104,-0.0102,-0.0094,-0.0079,-0.008,-0.0082,-0.0088,-0.008,-0.0079,-0.005,-0.0047,-0.0046,-0.0032,-0.003,-0.0026,-0.0025,-0.0024,-0.0024,0,0,0,0,0,0,0,-0.0094,-0.0095,-0.011,-0.0105,-0.0103,-0.009,-0.009,-0.0079,-0.0072,-0.0088,-0.0086,-0.0086,-0.0049,-0.0048,-0.0045,-0.0029,-0.0026,-0.0025,-0.0024,-0.0023,-0.003,-0.0031,0,0,0,0,0,0,-0.0099,-0.0095,-0.0111,-0.011,-0.0097,-0.0091,-0.0091,-0.0097,-0.0072,-0.0069,-0.0087,-0.0085,-0.005,-0.0047,-0.0043,-0.0041,-0.0024,-0.0023,-0.0022,-0.0029,-0.003,-0.0031,0,0,0,0,0,0,-0.0098,-0.01,-0.0111,-0.0102,-0.0103,-0.0093,-0.01,-0.0097,-0.0095,-0.0073,-0.0068,-0.0087,-0.005,-0.0045,-0.0033,-0.0039,-0.0022,-0.0021,-0.0027,-0.0029,-0.003,-0.004,0,0,0,0,0,0,-0.0098,-0.01,-0.0104,-0.0103,-0.0104,-0.0118,-0.01,-0.0097,-0.0097,-0.0094,-0.0071,-0.0066,-0.0049,-0.0035,-0.0032,-0.0037,-0.002,-0.0026,-0.0028,-0.003,-0.0038,-0.0042,-0.0044,0,0,0,0,0,-0.0097,-0.0106,-0.0105,-0.0107,-0.0111,-0.0118,-0.0117,-0.0107,-0.0097,-0.0101,-0.0082,-0.0067,-0.0045,-0.0034,-0.003,-0.0035,-0.0025,-0.0028,-0.003,-0.0037,-0.0041,-0.0044,0,0,0,0,0,0,-0.01,-0.0105,-0.0103,-0.0114,-0.0118,-0.0114,-0.0116,-0.0111,-0.01,-0.0095,-0.0071,-0.0065,-0.0058,-0.0052,-0.0041,-0.0046,-0.0036,-0.0038,-0.0044,-0.0047,-0.005,-0.0039,-0.0019,0,0,0,0,0,-0.0103,-0.0111,-0.0115,-0.0124,-0.0127,-0.0123,-0.0123,-0.0119,-0.0111,-0.0106,-0.0092,-0.0079,-0.0066,-0.0059,-0.005,-0.0049,0.0011,-0.0055,-0.0057,-0.006,-0.0051,0.0048,0.0056,-0.0038,-0.0038,-0.0038,0,0,-0.0109,-0.0111,-0.0117,-0.0125,-0.0126,-0.0138,-0.0122,-0.0127,-0.0133,-0.0102,-0.0103,-0.0086,-0.0069,-0.0065,-0.0063,-0.0058,-0.0004,-0.0063,-0.0064,-0.0054,0.0047,0.0056,0.0065,-0.004,-0.0039,-0.0039,0,0,-0.0125,-0.0125,-0.0139,-0.0145,-0.0149,-0.0148,-0.0152,-0.0153,-0.0148,-0.0152,-0.0126,-0.0105,-0.0106,-0.0079,-0.0069,-0.0085,-0.0021,-0.0098,-0.0101,-0.0005,0.0005,0.0014,0.0104,0.0121,-0.0101,-0.0101,-0.0101,0,-0.0131,-0.0148,-0.0144,-0.0159,-0.0164,-0.0155,-0.0172,-0.017,-0.0166,-0.0155,-0.0159,-0.012,-0.0109,-0.0073,-0.0086,-0.0087,-0.0023,-0.0084,-0.0004,0.0007,0.0017,0.0106,0.0126,-0.0101,-0.0101,-0.0101,-0.0101,0,-0.0158,-0.0172,-0.018,-0.0195,-0.0201,-0.0213,-0.0212,-0.0212,-0.0208,-0.0197,-0.0168,-0.0139,-0.011,-0.0113,-0.0108,-0.0044,-0.0018,-0.0012,0.0016,0.0027,0.0119,0.014,-0.0102,-0.0102,-0.0102,-0.0102,0,0,-0.0172,-0.0195,-0.0198,-0.021,-0.022,-0.0228,-0.0235,-0.023,-0.0221,-0.0207,-0.0184,-0.0157,-0.0124,-0.0111,-0.0085,-0.0016,0.0099,0.0007,0.0013,0.0115,0.0321,0.0267,0.0285,0.013,0.0133,0.0136,0.036,0,-0.0194,-0.0226,-0.0229,-0.0259,-0.0276,-0.0267,-0.0274,-0.0264,-0.025,-0.0227,-0.0172,-0.0146,-0.0128,-0.011,-0.0032,0.0053,0.0153,0.0039,0.0278,0.0286,0.0253,0.0306,0.0146,0.0375,0.038,0.0384,0.0386,0,-0.022,-0.0235,-0.0267,-0.0287,-0.0292,-0.0306,-0.0297,-0.03,-0.026,-0.0246,-0.0188,-0.015,-0.0061,-0.0048,0.0162,0.009,0.0212,0.0292,0.0303,0.0272,0.027,0.036,0.0425,0.0422,0.0419,0.0416,0.0414,0,-0.023,-0.0263,-0.0285,-0.0294,-0.0314,-0.0319,-0.0323,-0.0301,-0.0301,-0.0245,-0.0235,-0.0115,-0.007,0.0103,0.0246,0.0222,0.0486,0.0478,0.0564,0.0562,0.055,0.0538,0.0673,0.0673,0.0673,0.0672,0.0671,0,-0.0251,-0.0272,-0.0292,-0.0306,-0.0332,-0.0333,-0.0344,-0.0334,-0.031,-0.0305,-0.0237,-0.0196,-0.0029,0.0118,0.0277,0.0476,0.053,0.0587,0.0623,0.0537,0.0521,0.0566,0.0551,0.068,0.0678,0.0677,0.0675,0,-0.0267,-0.0279,-0.0311,-0.0332,-0.0342,-0.0358,-0.0382,-0.0386,-0.036,-0.0347,-0.0332,-0.0237,-0.0049,0.0139,0.0408,0.0493,0.0702,0.0774,0.0676,0.07,0.0714,0.0695,0.0898,0.0898,0.0898,0.0898,0.0898,0,-0.0281,-0.0297,-0.0334,-0.0361,-0.0376,-0.0401,-0.0422,-0.0412,-0.0416,-0.0366,-0.0357,-0.0204,-0.0115,0.0246,0.0424,0.0745,0.0773,0.0869,0.0785,0.0726,0.0742,0.0722,0.0704,0.0898,0.0898,0.0898,0.0898,0,-0.0309,-0.0319,-0.0347,-0.0399,-0.0431,-0.0465,-0.0487,-0.0492,-0.0473,-0.0453,-0.0343,-0.019,0.0009,0.0248,0.0486,0.0709,0.0786,0.0871,0.0872,0.0794,0.0729,0.074,0.0722,0.0899,0.0899,0.0899,0.0899,0,-0.0331,-0.0359,-0.0395,-0.0439,-0.0487,-0.0519,-0.0522,-0.0499,-0.0485,-0.0417,-0.0373,-0.0164,-0.0042,0.0233,0.046,0.0655,0.0688,0.0716,0.0726,0.0727,0.0576,0.0462,0.0607,0,0,0,0,0,-0.0354,-0.039,-0.0437,-0.0489,-0.0536,-0.0555,-0.0568,-0.056,-0.0533,-0.045,-0.0406,-0.0205,0.0087,0.0212,0.0409,0.0436,0.0698,0.0662,0.073,0.09,0.09,0.0742,0,0,0,0,0,0,-0.0374,-0.0422,-0.0443,-0.052,-0.0559,-0.0604,-0.0608,-0.0585,-0.0518,-0.0463,-0.028,-0.02,0.0115,-0.0009,0.0403,0.0455,0.051,0.0809,0.0812,0.0901,0.09,0.09,0.0737,0,0,0,0,0]}]]